HODOYOSHI-4

Last updated on Mon Sep 07 2026 00:02:45 GMT+0000 (Coordinated Universal Time)

1 40011U 14033B 26249.59167493 .00000866 00000+0 98802-4 0 9994 2 40011 97.5485 70.5117 0024590 38.4557 321.8407 14.88294659660912
UTC large
Height (km)
Speed (km/s)
/
Latitude / Longitude
Inclination (degrees)
Orbital Period (minutes)
Azimuth
Elevation
Range (km)
Doppler Factor

Next 0 passes for location: London (51.5072 / 0.1276)

No passes found over London.
HODOYOSHI-4